This is the latest recevied weather packets stored in our database for station/object WB0OCV. If no packets are shown the sender has not sent any weather packets the latest 10 day(s).
| Time | Temp. | Humidity | Pressure | Rain* | Wind** | Luminosity | Snow |
|---|---|---|---|---|---|---|---|
| 1777937516 | 12.22° C | 68% | 1013.4 hPa | 0 mm | - | 7 W/m² | - |
| 1777937214 | 12.22° C | 68% | 1013.3 hPa | 0 mm | - | 9 W/m² | - |
| 1777936911 | 12.22° C | 67% | 1013.4 hPa | 0 mm | - | 11 W/m² | - |
| 1777936608 | 12.22° C | 66% | 1013.4 hPa | 0 mm | - | 13 W/m² | - |
| 1777936304 | 12.22° C | 66% | 1013.3 hPa | 0 mm | - | 15 W/m² | - |
| 1777936000 | 12.78° C | 66% | 1013.3 hPa | 0 mm | - | 17 W/m² | - |
| 1777935699 | 12.78° C | 65% | 1012.9 hPa | 0 mm | - | 24 W/m² | - |
| 1777935397 | 12.78° C | 65% | 1013.2 hPa | 0 mm | - | 27 W/m² | - |
| 1777935093 | 12.78° C | 64% | 1013.1 hPa | 0 mm | - | 33 W/m² | - |
| 1777934790 | 13.33° C | 64% | 1013.1 hPa | 0 mm | - | 36 W/m² | - |
| 1777934486 | 13.33° C | 63% | 1013.1 hPa | 0 mm | - | 38 W/m² | - |
| 1777934184 | 13.33° C | 64% | 1013.1 hPa | 0 mm | - | 41 W/m² | - |
| 1777933880 | 13.33° C | 64% | 1013.1 hPa | 0 mm | - | 47 W/m² | - |
| 1777933577 | 13.33° C | 64% | 1013 hPa | 0 mm | - | 46 W/m² | - |
| 1777933274 | 13.33° C | 63% | 1013.2 hPa | 0 mm | - | 46 W/m² | - |
| 1777932971 | 13.33° C | 63% | 1013.1 hPa | 0 mm | - | 46 W/m² | - |
| 1777932668 | 13.33° C | 64% | 1012.9 hPa | 0 mm | - | 55 W/m² | - |
| 1777932364 | 13.33° C | 64% | 1013.1 hPa | 0 mm | - | 59 W/m² | - |
| 1777932061 | 13.89° C | 63% | 1013 hPa | 0 mm | - | 60 W/m² | - |
| 1777931758 | 13.89° C | 62% | 1013.1 hPa | 0 mm | - | 72 W/m² | - |
| 1777931455 | 13.89° C | 62% | 1013 hPa | 0 mm | - | 66 W/m² | - |
| 1777931151 | 14.44° C | 61% | 1013.3 hPa | 0 mm | - | 169 W/m² | - |
| 1777930848 | 14.44° C | 59% | 1013.1 hPa | 0 mm | - | 180 W/m² | - |
| 1777930544 | 14.44° C | 59% | 1013 hPa | 0 mm | - | 207 W/m² | - |
| 1777930241 | 14.44° C | 60% | 1013.2 hPa | 0 mm | - | 236 W/m² | - |
* Rain latest hour (hover to see other rain measurements)
** Current wind speed in m/s (hover to see current wind gust speed)